Regional Weather Roundup
Issued by NWS

Home | Current Version | Previous Version | Text Only | Print | Product List | Glossary Off
Versions: 1 2 3 4 5 6 7 8 9 10 11 12 13 14 15 16 17 18 19 20 21 22 23 24 25 26 27 28 29 30 31 32 33 34 35 36 37 38 39 40 41 42 43 44 45 46 47 48 49 50

755
ASUS43 KOAX 261110
RWRNE

WEATHER ROUNDUP FOR NEBRASKA
NATIONAL WEATHER SERVICE OMAHA NE
600 AM CDT SUN MAR 26 2017

NOTES: SATELLITE DATA IS BEING USED TO AUGMENT CLOUD COVER ABOVE
       12000 FEET.
       "FAIR" INDICATES FEW OR NO CLOUDS BELOW 12,000 FEET WITH NO
       SIGNIFICANT WEATHER AND/OR OBSTRUCTIONS TO VISIBILITY.

  * THESE STATIONS DO NOT REPORT WEATHER SUCH AS RAIN...SNOW OR FOG.

NEZ001>004-019>022-054>056-261200-
NEBRASKA PANHANDLE

CITY           SKY/WX    TMP DP  RH WIND       PRES   REMARKS
SCOTTSBLUFF    CLOUDY    42  30  62 E6        29.79F
ALLIANCE       PTCLDY    35  31  85 SE9       29.80S WCI  28
CHADRON        CLOUDY    46  33  60 N8        29.79S
KIMBALL        CLOUDY    42  33  70 S6        29.81S
SIDNEY         CLOUDY    41  32  70 CALM      29.81F
$$

NEZ057>060-069>072-079>082-261200-
SOUTHWEST NEBRASKA

CITY           SKY/WX    TMP DP  RH WIND       PRES   REMARKS
NORTH PLATTE   CLOUDY    40  37  89 VRB3      29.86R
IMPERIAL       FOG       39  38  96 SE6       29.83S VSB 1/2 WCI  35
LEXINGTON      CLOUDY    40  38  92 SE5       29.86S
MCCOOK         CLOUDY    40  40 100 SE6       29.85S FOG
OGALLALA       CLOUDY    41  40  97 CALM      29.84S FOG
$$

NEZ005>010-023>029-035>040-094-261200-
NORTH CENTRAL NEBRASKA

CITY           SKY/WX    TMP DP  RH WIND       PRES   REMARKS
VALENTINE      CLOUDY    38  36  92 S8        29.85R WCI  32
AINSWORTH      CLOUDY    38  38 100 CALM      29.85S FOG
BROKEN BOW     CLOUDY    41  40  96 SW5       29.85S FOG
O`NEILL        FOG       39  39 100 CALM      29.88F VSB 1/4
ORD            CLOUDY    40  37  89 CALM      29.85F FOG
THEDFORD       CLOUDY    39  38  99 S5        29.85S
$$

NEZ041-046>049-061>064-073>077-083>087-261200-
SOUTH CENTRAL NEBRASKA

CITY           SKY/WX    TMP DP  RH WIND       PRES   REMARKS
GRAND ISLAND   CLOUDY    38  38 100 N3        29.88F FOG
AURORA         CLOUDY    38  38 100 NE3       29.87F FOG
HASTINGS       CLOUDY    39  37  92 CALM      29.89R FOG
HEBRON         CLOUDY    39  38  97 CALM      29.89S FOG
HOLDREGE       CLOUDY    39  38  95 CALM      29.86S FOG
KEARNEY *      CLOUDY    39  36  87 CALM      29.87F
YORK           CLOUDY    39  39 100 CALM      29.89F FOG
$$

NEZ011>018-030>034-042>045-261200-
NORTHEAST NEBRASKA

CITY           SKY/WX    TMP DP  RH WIND       PRES   REMARKS
NORFOLK        FOG       37  36  96 NW3       29.89S VSB 1
ALBION         CLOUDY    40  38  91 CALM      29.88F FOG
BLAIR          CLOUDY    39  38  97 N7        29.88S FOG     WCI  34
FREMONT        CLOUDY    39  39 100 CALM      29.90S FOG
TEKAMAH        CLOUDY    39  38  96 N7        29.90R FOG     WCI  34
WAYNE          CLOUDY    38  37  99 N6        29.91R FOG     WCI  33
$$

NEZ050>053-065>068-078-088>093-261200-
SOUTHEAST NEBRASKA

CITY           SKY/WX    TMP DP  RH WIND       PRES   REMARKS
LINCOLN        CLOUDY    40  39  97 N6        29.91S FOG
OMAHA EPPLEY   CLOUDY    40  37  89 N6        29.89S FOG
BEATRICE       CLOUDY    40  40 100 NW5       29.90R FOG
FALLS CITY     CLOUDY    42  41  96 NW5       29.88S
NEBRASKA CITY  CLOUDY    40  40 100 N7        29.88F FOG     WCI  35
PLATTSMOUTH    CLOUDY    40  38  91 NW5       29.88F FOG
$$

NEZ044-045-051>053-067-261200-
OMAHA AREA

CITY           SKY/WX    TMP DP  RH WIND       PRES   REMARKS
OMAHA EPPLEY   CLOUDY    40  37  89 N6        29.89S FOG
BLAIR          CLOUDY    39  38  97 N7        29.88S FOG     WCI  34
FREMONT        CLOUDY    39  39 100 CALM      29.90S FOG
MILLARD        CLOUDY    42  40  93 NW3       29.90S
OFFUTT AFB     CLOUDY    40  38  90 N6        29.88F
PLATTSMOUTH    CLOUDY    40  38  91 NW5       29.88F FOG
WAHOO          CLOUDY    39  38  97 NW5       29.90S FOG
$$




USA.gov is the U.S. government's official web portal to all federal, state and local government web resources and services.